[[{"header":{"parameterUnit":"m.s-1","parameterCategory":1,"la1":30.2991,"la2":30.254,"lo1":-89.0895,"lo2":-89.0444,"dy":0.0017,"dx":0.0017,"nx":28,"ny":28,"refTime":"2024-08-02T03:00:00:Z","depth":0,"parameterNumber":2,"parameterNumberName":"U-component_of_WINDS"},"data":[0,0,0,0,0,0,0,0,0,0,0,0,0,0,0,0,0,0,0,0,0,0,0,0,0,0,0,0,0,0,0,0,0,0,0,0,0,0,0,0,0,0,0,0,0,0,0,0,0,0,0,0,0,0,0,0,0,0,4.6117,4.6119,0,4.628,4.6282,4.6284,4.6212,4.6208,4.6204,4.62,4.6372,4.638,4.6389,0,0,0,0,0,0,0,0,0,0,0,0,0,4.5748,4.5755,4.6117,4.6119,4.6121,4.6279,4.6282,4.6284,4.6213,4.6208,4.6203,4.6198,4.637,4.6379,4.6389,0,0,0,0,0,0,0,0,0,0,0,0,0,4.5909,4.5757,4.6116,4.6104,4.6105,4.6279,4.6282,4.6285,4.6214,4.6208,4.6202,4.6196,4.6366,4.6378,4.6391,4.6588,0,0,4.6429,4.6434,0,0,0,0,0,0,0,0,4.59,4.5923,4.6104,4.6105,4.6106,4.6219,4.6215,4.6386,4.6215,4.6173,4.62,4.6193,4.6327,4.6342,4.6386,4.6596,4.6603,4.643,4.6437,4.6443,4.6446,0,0,0,0,0,0,0,4.5889,4.5915,4.6181,4.6107,4.6108,4.6092,4.6108,4.6247,4.6282,4.6176,4.6171,4.6191,4.6326,4.6374,4.6389,4.6606,4.643,4.6441,4.6448,4.6453,4.6985,4.6992,0,0,0,0,0,0,4.5877,4.5907,4.6176,4.6186,4.5986,4.6103,4.6122,4.6189,4.628,4.6288,4.6196,4.6187,4.6356,4.6375,4.6395,4.6631,4.6443,4.6454,4.6462,4.6979,4.6987,4.6994,0,0,0,0,0,0,4.587,4.5902,4.617,4.6045,4.6078,4.6116,4.6193,4.6196,4.6243,4.6295,4.6301,4.6238,4.6352,4.6378,4.654,4.6636,4.646,4.6471,4.6971,4.6981,4.699,4.7106,0,0,0,0,0,0,4.5859,4.59,4.5974,4.6047,4.6085,4.6311,4.6199,4.6203,4.6264,4.6254,4.6336,4.6344,4.6349,4.6522,4.6552,4.665,4.6481,4.6962,4.6975,4.6987,4.7094,4.7119,4.714,0,0,0,0,0,4.5846,4.6002,4.5978,4.6011,4.6179,4.6317,4.6338,4.6339,4.6273,4.6348,4.6381,4.6342,4.6621,4.6539,4.6573,4.6676,4.6956,4.6972,4.6986,4.7083,4.7114,4.7139,0,0,0,0,0,0,4.5941,4.6011,4.5986,4.6169,4.6237,4.6304,4.64,4.6372,4.6461,4.6448,4.6447,4.6466,4.6634,4.6671,4.6579,4.6871,4.6779,4.6801,4.6841,4.687,4.6893,4.6881,4.6491,0,0,0,0,0,4.5983,4.6087,4.6144,4.63,4.6335,4.6362,4.6422,4.6417,4.6488,4.6517,4.6561,4.6633,4.6737,4.6806,4.6904,4.7099,4.7115,4.7186,4.7209,4.7228,4.7248,4.7353,4.7385,4.7043,4.7043,4.7043,0,0,4.6071,4.6122,4.6189,4.632,4.6372,4.6482,4.6387,4.6507,4.6588,4.6536,4.6691,4.6726,4.6807,4.6986,4.7067,4.7022,4.7346,4.7247,4.7262,4.7271,4.7372,4.7404,4.7433,4.7053,4.7051,4.705,0,0,4.6287,4.6336,4.6471,4.6525,4.6604,4.6621,4.6653,4.6725,4.6746,4.6901,4.6863,4.6961,4.714,4.7198,4.7252,4.7489,4.7456,4.7521,4.7642,4.7745,4.7772,4.7796,4.788,4.7911,4.7541,4.7541,4.7541,0,4.6387,4.6549,4.6545,4.6668,4.6727,4.6682,4.6819,4.6872,4.6981,4.7023,4.697,4.7193,4.7244,4.7436,4.7493,4.7538,4.7576,4.7512,4.7768,4.7792,4.7814,4.7895,4.7927,4.7548,4.7547,4.7547,4.7546,0,4.6668,4.6781,4.6881,4.6985,4.7055,4.7185,4.7201,4.7273,4.7261,4.7284,4.7443,4.7502,4.7611,4.7656,4.7647,4.7847,4.7816,4.7767,4.7673,4.7854,4.793,4.7961,4.7559,4.7556,4.7554,4.7552,0,0,4.695,4.7048,4.7085,4.713,4.7214,4.7302,4.743,4.7535,4.7597,4.7673,4.778,4.7932,4.7886,4.7946,4.7943,4.8033,4.8217,4.7972,4.7974,4.8015,4.844,4.8477,4.8513,4.8195,4.8201,4.8205,4.8434,0,4.7172,4.7394,4.7393,4.7599,4.7703,4.7662,4.7773,4.7837,4.7861,4.7954,4.7981,4.8089,4.802,4.8056,4.8143,4.8176,4.8302,4.8159,4.8296,4.8301,4.8277,4.8553,4.8593,4.8805,4.8463,4.8468,4.8472,0,4.7462,4.7545,4.776,4.7827,4.7871,4.7971,4.8067,4.8156,4.8228,4.8239,4.8306,4.8289,4.8419,4.8322,4.8502,4.8405,4.8461,4.8486,4.8494,4.8507,4.8397,4.8573,4.8873,4.8905,4.8518,4.8515,4.8511,0,4.7645,4.7811,4.7961,4.8002,4.8084,4.8155,4.8193,4.8259,4.8322,4.8406,4.8447,4.8546,4.86,4.8678,4.8688,4.8616,4.887,4.8773,4.8883,4.8883,4.8939,4.8935,4.9252,4.8975,4.8975,4.8974,4.8973,0,4.7894,4.8027,4.8044,4.8137,4.8285,4.8283,4.8431,4.8463,4.8521,4.862,4.859,4.8684,4.8691,4.8788,4.8797,4.8945,4.897,4.8983,4.8984,4.8986,4.8985,4.9023,4.9008,4.8983,4.8981,4.8979,4.8978,0,4.8124,4.8141,4.8301,4.8365,4.8385,4.8491,4.8547,4.8635,4.8656,4.8781,4.881,4.8843,4.8955,4.8973,4.9105,4.9111,4.9288,4.9274,4.9263,4.9261,4.937,4.936,4.9723,4.977,4.9463,4.9466,4.9468,0,4.8281,4.8383,4.8457,4.852,4.8561,4.8663,4.8726,4.8729,4.8796,4.8884,4.8963,4.9071,4.9158,4.9339,4.9375,4.9476,4.9464,4.9584,4.9479,4.9477,4.9466,4.9459,4.9469,4.9605,4.9608,4.9611,4.9613,0,4.8559,4.8562,4.8653,4.8748,4.8824,4.8899,4.897,4.9023,4.9035,4.9112,4.9225,4.9292,4.9426,4.9534,4.9633,4.9674,4.9646,4.9645,4.9676,4.9679,4.9669,4.9676,4.9318,4.9637,4.9635,4.9633,4.9632,4.9631,4.8758,4.8846,4.8911,4.9014,4.9067,4.9133,4.9219,4.925,4.9343,4.9451,4.9447,4.9571,4.9639,4.977,4.9817,4.9915,4.9876,4.9921,4.9932,4.9943,4.9953,4.9653,4.9933,4.9932,4.9932,4.9931,4.9931,0,4.9034,4.9074,4.9168,4.9267,4.9348,4.9312,4.9388,4.9459,4.9568,4.9633,4.9718,4.9848,4.9953,4.9997,5.0099,5.0169,5.0159,5.0196,5.0191,5.0201,4.9982,4.9945,5.0203,5.0203,5.0202,5.0202,5.0202,5.0202,4.9187,4.9333,4.9344,4.9516,4.9555,4.9675,4.9721,4.9783,4.9835,4.998,5.0066,5.0093,5.0151,5.0257,5.0351,5.0361,5.0401,5.0444,5.0449,5.0244,5.0216,5.019,5.0155,5.0452,5.0453,5.0659,5.0661,5.0662]},{"header":{"parameterUnit":"m.s-1","parameterCategory":1,"la1":30.2991,"la2":30.254,"lo1":-89.0895,"lo2":-89.0444,"dy":0.0017,"dx":0.0017,"nx":28,"ny":28,"refTime":"2024-08-02T03:00:00:Z","depth":0,"parameterNumber":3,"parameterNumberName":"V-component_of_WINDS"},"data":[0,0,0,0,0,0,0,0,0,0,0,0,0,0,0,0,0,0,0,0,0,0,0,0,0,0,0,0,0,0,0,0,0,0,0,0,0,0,0,0,0,0,0,0,0,0,0,0,0,0,0,0,0,0,0,0,0,0,0.4722,0.4723,0,0.4811,0.4812,0.4813,0.4834,0.4833,0.4833,0.4832,0.4924,0.4927,0.493,0,0,0,0,0,0,0,0,0,0,0,0,0,0.4572,0.4574,0.4722,0.4723,0.4724,0.481,0.4812,0.4813,0.4834,0.4833,0.4832,0.4832,0.4923,0.4926,0.493,0,0,0,0,0,0,0,0,0,0,0,0,0,0.4646,0.4575,0.4722,0.4745,0.4748,0.481,0.4812,0.4813,0.4834,0.4833,0.4832,0.4831,0.4922,0.4926,0.493,0.4976,0,0,0.4944,0.4946,0,0,0,0,0,0,0,0,0.4642,0.4652,0.4741,0.4744,0.4747,0.481,0.4792,0.4868,0.4834,0.4801,0.4832,0.4831,0.4887,0.4894,0.4913,0.498,0.4984,0.4945,0.4947,0.4949,0.495,0,0,0,0,0,0,0,0.4637,0.4648,0.4757,0.4742,0.4746,0.4751,0.4761,0.4807,0.4848,0.4804,0.4806,0.4816,0.4888,0.4908,0.4915,0.4986,0.4944,0.4948,0.4951,0.4953,0.5095,0.5096,0,0,0,0,0,0,0.4628,0.4644,0.4754,0.476,0.4691,0.4755,0.4765,0.4791,0.4848,0.4855,0.4817,0.4817,0.4901,0.491,0.4918,0.4976,0.4949,0.4953,0.4956,0.5094,0.5095,0.5096,0,0,0,0,0,0,0.4624,0.4637,0.4751,0.4702,0.4717,0.4758,0.4787,0.4793,0.4813,0.4857,0.4865,0.483,0.4901,0.4912,0.4961,0.4979,0.4955,0.4959,0.5092,0.5094,0.5095,0.509,0,0,0,0,0,0,0.462,0.4636,0.4654,0.4702,0.472,0.4792,0.4788,0.4795,0.4821,0.4821,0.4871,0.4878,0.4901,0.4954,0.4966,0.4985,0.4963,0.5091,0.5093,0.5095,0.5089,0.5092,0.5094,0,0,0,0,0,0.4614,0.4649,0.4654,0.4668,0.4743,0.4793,0.4803,0.4828,0.4822,0.484,0.4868,0.4877,0.4975,0.4959,0.4972,0.4993,0.509,0.5092,0.5095,0.5088,0.5091,0.5094,0,0,0,0,0,0,0.4602,0.4656,0.4663,0.4714,0.4749,0.4797,0.4821,0.483,0.4868,0.4867,0.4897,0.4908,0.4955,0.4979,0.496,0.504,0.5032,0.5037,0.5023,0.5026,0.5028,0.5022,0.4967,0,0,0,0,0,0.4605,0.4641,0.4687,0.4728,0.4745,0.4779,0.4802,0.4818,0.4856,0.4871,0.4903,0.4939,0.4978,0.5003,0.5041,0.5092,0.5103,0.5112,0.5115,0.5116,0.5121,0.5149,0.5154,0.5104,0.5104,0.5104,0,0,0.4612,0.4646,0.4667,0.4726,0.4755,0.4792,0.4792,0.4831,0.4859,0.4877,0.4926,0.495,0.4992,0.5042,0.5066,0.5064,0.5137,0.5119,0.512,0.5124,0.5152,0.5157,0.5161,0.5106,0.5105,0.5105,0,0,0.4644,0.4673,0.4711,0.4739,0.4783,0.4805,0.4814,0.4861,0.4877,0.4926,0.494,0.4974,0.504,0.507,0.5094,0.5135,0.5145,0.5147,0.5159,0.5187,0.5191,0.5194,0.521,0.5215,0.5151,0.5151,0.5151,0,0.4648,0.4704,0.4729,0.4767,0.4793,0.4809,0.4848,0.4874,0.4928,0.4945,0.4941,0.5025,0.5054,0.5112,0.5122,0.514,0.5152,0.5142,0.5188,0.5192,0.5196,0.5211,0.5216,0.5151,0.5151,0.5151,0.5151,0,0.4706,0.4745,0.477,0.4821,0.4849,0.4887,0.4918,0.4943,0.4956,0.4979,0.5029,0.5064,0.511,0.5125,0.5138,0.5184,0.5181,0.5182,0.5176,0.52,0.5215,0.5221,0.5151,0.5151,0.5151,0.5151,0,0,0.4735,0.4798,0.4807,0.483,0.4878,0.4909,0.4948,0.4992,0.5013,0.5049,0.5083,0.5138,0.5139,0.5166,0.5182,0.5206,0.5238,0.5205,0.5206,0.521,0.5291,0.529,0.5296,0.5243,0.5244,0.5245,0.5287,0,0.4773,0.4843,0.4866,0.4924,0.496,0.4976,0.5009,0.5043,0.5065,0.5099,0.5123,0.5162,0.5161,0.5177,0.5201,0.5229,0.5254,0.5226,0.5275,0.5277,0.5265,0.5304,0.5304,0.5342,0.5293,0.5294,0.5295,0,0.4828,0.4865,0.4926,0.497,0.4986,0.5016,0.5058,0.509,0.5128,0.5142,0.5171,0.5186,0.5227,0.5217,0.5274,0.5254,0.5275,0.5291,0.5293,0.53,0.5288,0.5312,0.5354,0.536,0.5304,0.5303,0.5302,0,0.4843,0.4908,0.4953,0.4972,0.5024,0.5044,0.5067,0.5104,0.5129,0.5166,0.5182,0.5223,0.5246,0.5277,0.5302,0.5292,0.5357,0.5349,0.537,0.537,0.5385,0.5383,0.5431,0.5396,0.5396,0.5396,0.5396,0,0.4885,0.4922,0.496,0.4988,0.503,0.5055,0.5096,0.512,0.5152,0.5185,0.5201,0.5231,0.5262,0.5296,0.5316,0.536,0.537,0.5383,0.5388,0.5383,0.5381,0.5398,0.5396,0.5398,0.5397,0.5397,0.5397,0,0.4909,0.4936,0.4987,0.5031,0.5043,0.5072,0.511,0.5138,0.516,0.5201,0.5212,0.5247,0.5289,0.5316,0.5369,0.5382,0.5431,0.5435,0.5418,0.5421,0.5441,0.5439,0.5502,0.5512,0.547,0.547,0.547,0,0.4934,0.4963,0.501,0.5033,0.5056,0.5092,0.5118,0.5143,0.5169,0.5214,0.5236,0.5278,0.5314,0.5378,0.5409,0.5449,0.5455,0.5474,0.5461,0.5454,0.5456,0.5454,0.5458,0.5477,0.5477,0.5477,0.5477,0,0.4976,0.4988,0.5024,0.5064,0.5094,0.5127,0.516,0.5178,0.5209,0.5237,0.5279,0.5306,0.536,0.5402,0.5445,0.5468,0.5478,0.5481,0.5488,0.5483,0.5473,0.5479,0.5424,0.548,0.548,0.5479,0.5479,0.5479,0.5003,0.5029,0.5066,0.5105,0.5133,0.5163,0.5191,0.5216,0.5252,0.5297,0.531,0.5354,0.5391,0.5449,0.5473,0.5508,0.5506,0.5517,0.5519,0.5522,0.5522,0.5466,0.5516,0.5516,0.5516,0.5516,0.5516,0,0.5046,0.507,0.5106,0.5151,0.5182,0.5188,0.5225,0.525,0.5289,0.5322,0.5356,0.5404,0.5444,0.5477,0.5519,0.554,0.5546,0.555,0.5549,0.5555,0.5521,0.5511,0.5545,0.5545,0.5545,0.5545,0.5545,0.5545,0.5072,0.5117,0.5133,0.5191,0.5215,0.5258,0.5279,0.5307,0.5334,0.5386,0.542,0.5441,0.5474,0.5518,0.5555,0.5564,0.5578,0.5582,0.5592,0.556,0.5557,0.5554,0.5545,0.5585,0.5585,0.5622,0.5623,0.5623]}]]